TimeCST,TemperatureF,Dew PointF,Humidity,Sea Level PressureIn,VisibilityMPH,Wind Direction,Wind SpeedMPH,Gust SpeedMPH,PrecipitationIn,Events,Conditions,WindDirDegrees,DateUTC
12:53 AM,50.0,36.0,59,30.23,10.0,Calm,Calm,-,N/A,,Overcast,0,2013-01-06 06:53:00
1:33 AM,50.0,37.4,62,30.22,10.0,NNE,4.6,-,N/A,,Overcast,20,2013-01-06 07:33:00
1:53 AM,50.0,37.9,63,30.23,10.0,North,5.8,-,N/A,,Overcast,10,2013-01-06 07:53:00
2:53 AM,50.0,37.0,61,30.22,10.0,NNE,5.8,-,0.00,Rain,Light Rain,30,2013-01-06 08:53:00
3:53 AM,48.9,39.0,69,30.20,10.0,NE,5.8,-,0.00,,Overcast,40,2013-01-06 09:53:00
4:53 AM,48.0,39.9,74,30.19,10.0,NNE,6.9,-,N/A,,Overcast,30,2013-01-06 10:53:00
5:53 AM,48.0,39.9,74,30.21,10.0,North,9.2,-,N/A,,Overcast,10,2013-01-06 11:53:00
6:53 AM,46.9,39.9,77,30.25,10.0,North,9.2,-,0.00,Rain,Light Rain,10,2013-01-06 12:53:00
7:44 AM,46.4,42.8,87,30.25,10.0,North,11.5,-,0.00,,Overcast,10,2013-01-06 13:44:00
7:53 AM,46.0,42.1,86,30.26,10.0,NNE,12.7,-,0.00,,Overcast,20,2013-01-06 13:53:00
8:53 AM,46.0,42.1,86,30.27,10.0,North,10.4,-,0.00,Rain,Light Rain,350,2013-01-06 14:53:00
9:24 AM,44.6,42.8,93,30.27,2.5,North,11.5,-,0.01,Rain,Rain,10,2013-01-06 15:24:00
9:45 AM,44.6,42.8,93,30.27,3.0,North,8.1,-,0.04,Rain,Light Rain,360,2013-01-06 15:45:00
9:53 AM,45.0,43.0,93,30.27,3.0,NNE,8.1,-,0.05,Rain,Rain,20,2013-01-06 15:53:00
10:31 AM,46.4,42.8,87,30.27,6.0,North,8.1,-,0.03,,Overcast,10,2013-01-06 16:31:00
10:53 AM,46.0,43.0,89,30.28,8.0,NNE,6.9,-,0.03,,Overcast,20,2013-01-06 16:53:00
11:26 AM,46.4,42.8,87,30.26,4.0,NNE,6.9,-,0.04,,Overcast,30,2013-01-06 17:26:00
11:53 AM,46.9,44.1,90,30.26,10.0,North,8.1,-,0.04,,Overcast,360,2013-01-06 17:53:00
12:09 PM,46.4,44.6,93,30.23,10.0,North,9.2,-,N/A,,Overcast,10,2013-01-06 18:09:00
12:40 PM,48.2,44.6,87,30.23,10.0,NNE,9.2,-,N/A,,Overcast,30,2013-01-06 18:40:00
12:53 PM,48.9,45.0,86,30.22,10.0,NNE,8.1,-,N/A,,Overcast,20,2013-01-06 18:53:00
1:41 PM,48.2,46.4,93,30.20,10.0,NNE,8.1,-,N/A,,Overcast,30,2013-01-06 19:41:00
1:53 PM,50.0,46.0,86,30.21,10.0,NE,4.6,-,N/A,,Overcast,40,2013-01-06 19:53:00
2:02 PM,50.0,46.4,87,30.20,10.0,NNE,5.8,-,N/A,,Overcast,30,2013-01-06 20:02:00
2:53 PM,51.1,46.0,83,30.21,10.0,NNE,8.1,-,N/A,,Overcast,20,2013-01-06 20:53:00
3:23 PM,51.8,46.4,82,30.21,10.0,North,6.9,-,N/A,,Overcast,10,2013-01-06 21:23:00
3:30 PM,51.8,46.4,82,30.22,10.0,North,8.1,-,N/A,,Overcast,10,2013-01-06 21:30:00
3:53 PM,51.1,46.9,86,30.22,10.0,North,8.1,-,N/A,,Overcast,10,2013-01-06 21:53:00
4:00 PM,51.8,46.4,82,30.21,10.0,North,5.8,-,N/A,,Overcast,360,2013-01-06 22:00:00
4:53 PM,51.1,46.0,83,30.22,10.0,North,6.9,-,N/A,,Overcast,10,2013-01-06 22:53:00
5:53 PM,51.1,46.0,83,30.24,10.0,North,4.6,-,N/A,,Overcast,350,2013-01-06 23:53:00
6:53 PM,48.0,44.1,86,30.27,10.0,North,5.8,-,N/A,,Mostly Cloudy,350,2013-01-07 00:53:00
7:53 PM,46.9,43.0,86,30.28,10.0,North,5.8,-,N/A,,Scattered Clouds,350,2013-01-07 01:53:00
9:53 PM,42.1,39.9,92,30.29,10.0,Calm,Calm,-,N/A,,Mostly Cloudy,0,2013-01-07 03:53:00
10:53 PM,39.9,37.9,93,30.30,6.0,Calm,Calm,-,N/A,,Clear,0,2013-01-07 04:53:00
11:53 PM,39.9,37.9,93,30.30,10.0,Calm,Calm,-,N/A,,Clear,0,2013-01-07 05:53:00